Tracking 30743 objects as of 22-Jun-2025
HD Live streaming from Space Station
objects crossing your sky now

STARLINK-31557

Track STARLINK-31557 now!
10-day predictions
STARLINK-31557 is classified as:


NORAD ID: 59357
Int'l Code: 2024-060K
Perigee: 489.4 km
Apogee: 490.9 km
Inclination: 43.0 °
Period: 94.3 minutes
Semi major axis: 6861 km
RCS: Unknown
Launch date: March 31, 2024
Source: United States (US)
Launch site: AIR FORCE EASTERN TEST RANGE (AFETR)
Your satellite tracking list
Your tracking list is empty




NASA's NSSDC Master Catalog

Two Line Element Set (TLE):
1 59357U 24060K   25172.62670822  .00001228  00000-0  54134-4 0  9995
2 59357  43.0022 290.1043 0001072 276.8761  83.1968 15.27583128 70181
Source of the keplerian elements: AFSPC